[[{"header":{"parameterUnit":"m.s-1","parameterCategory":1,"la1":30.2991,"la2":30.254,"lo1":-89.0895,"lo2":-89.0444,"dy":0.0017,"dx":0.0017,"nx":28,"ny":28,"refTime":"2024-08-22T21:00:00:Z","depth":0,"parameterNumber":2,"parameterNumberName":"U-component_of_WINDS"},"data":[0,0,0,0,0,0,0,0,0,0,0,0,0,0,0,0,0,0,0,0,0,0,0,0,0,0,0,0,0,0,0,0,0,0,0,0,0,0,0,0,0,0,0,0,0,0,0,0,0,0,0,0,0,0,0,0,0,0,-0.4532,-0.4531,0,-0.4434,-0.4433,-0.4432,-0.4347,-0.4346,-0.4346,-0.4345,-0.4243,-0.4242,-0.424,0,0,0,0,0,0,0,0,0,0,0,0,0,-0.4645,-0.4644,-0.4532,-0.4531,-0.453,-0.4434,-0.4433,-0.4431,-0.4348,-0.4346,-0.4345,-0.4344,-0.4244,-0.4242,-0.424,0,0,0,0,0,0,0,0,0,0,0,0,0,-0.4577,-0.4643,-0.4532,-0.4476,-0.447,-0.4434,-0.4433,-0.4431,-0.4348,-0.4346,-0.4345,-0.4344,-0.4245,-0.4242,-0.4239,-0.4251,0,0,-0.4231,-0.423,0,0,0,0,0,0,0,0,-0.4581,-0.4572,-0.4486,-0.448,-0.4473,-0.4401,-0.4435,-0.437,-0.4348,-0.4394,-0.4345,-0.4343,-0.4297,-0.429,-0.4275,-0.4246,-0.4242,-0.4231,-0.4229,-0.4228,-0.4227,0,0,0,0,0,0,0,-0.4585,-0.4576,-0.4493,-0.4485,-0.4477,-0.4455,-0.4444,-0.4423,-0.4355,-0.439,-0.4384,-0.4373,-0.4293,-0.4277,-0.4272,-0.424,-0.4231,-0.4228,-0.4227,-0.4226,-0.4215,-0.4216,0,0,0,0,0,0,-0.4599,-0.4581,-0.4496,-0.449,-0.4525,-0.4455,-0.4442,-0.4426,-0.4355,-0.4343,-0.4375,-0.437,-0.4283,-0.4275,-0.4268,-0.4276,-0.4228,-0.4225,-0.4224,-0.4214,-0.4215,-0.4217,0,0,0,0,0,0,-0.4602,-0.4592,-0.45,-0.4534,-0.452,-0.4454,-0.4437,-0.4425,-0.4409,-0.4343,-0.433,-0.4371,-0.4281,-0.4272,-0.4255,-0.4271,-0.4224,-0.4222,-0.4212,-0.4214,-0.4216,-0.4293,0,0,0,0,0,0,-0.4605,-0.4594,-0.4598,-0.4534,-0.4519,-0.449,-0.4438,-0.4424,-0.4404,-0.4397,-0.4336,-0.4325,-0.428,-0.426,-0.4253,-0.4267,-0.422,-0.421,-0.4213,-0.4215,-0.4289,-0.4298,-0.4305,0,0,0,0,0,-0.461,-0.4623,-0.4598,-0.4589,-0.4523,-0.4491,-0.4482,-0.443,-0.4406,-0.4409,-0.4367,-0.4327,-0.4271,-0.4259,-0.425,-0.4264,-0.4209,-0.4212,-0.4215,-0.4285,-0.4296,-0.4305,0,0,0,0,0,0,-0.469,-0.4614,-0.4586,-0.4579,-0.4542,-0.4477,-0.448,-0.4443,-0.4412,-0.4407,-0.4343,-0.433,-0.4321,-0.429,-0.4279,-0.427,-0.4234,-0.4236,-0.4291,-0.43,-0.4308,-0.4316,-0.4217,0,0,0,0,0,-0.4707,-0.4689,-0.4623,-0.4624,-0.4606,-0.4547,-0.4531,-0.4494,-0.4453,-0.4437,-0.4393,-0.4355,-0.4329,-0.4313,-0.4285,-0.4284,-0.4269,-0.4289,-0.4297,-0.4304,-0.4306,-0.4303,-0.4311,-0.4227,-0.4227,-0.4227,0,0,-0.4742,-0.4698,-0.469,-0.4639,-0.4606,-0.4588,-0.4534,-0.4517,-0.4503,-0.4434,-0.4417,-0.4383,-0.4336,-0.4328,-0.4322,-0.4302,-0.4326,-0.4308,-0.4314,-0.4312,-0.4307,-0.4315,-0.4322,-0.4229,-0.4228,-0.4228,0,0,-0.4797,-0.4762,-0.4758,-0.4727,-0.4677,-0.4637,-0.4637,-0.4577,-0.4552,-0.4533,-0.4481,-0.4463,-0.4419,-0.4388,-0.4366,-0.4408,-0.437,-0.44,-0.4443,-0.4441,-0.4448,-0.4453,-0.4468,-0.4475,-0.4403,-0.4403,-0.4403,0,-0.4846,-0.4817,-0.4761,-0.4747,-0.4726,-0.4663,-0.4659,-0.4631,-0.4575,-0.4562,-0.454,-0.4483,-0.4447,-0.443,-0.4441,-0.4425,-0.4422,-0.4408,-0.4451,-0.4456,-0.446,-0.4474,-0.448,-0.4407,-0.4406,-0.4406,-0.4406,0,-0.4881,-0.4861,-0.4864,-0.4813,-0.4791,-0.4783,-0.4725,-0.471,-0.4675,-0.4637,-0.4618,-0.4572,-0.4534,-0.4527,-0.4492,-0.4505,-0.4495,-0.4463,-0.4426,-0.4474,-0.4486,-0.449,-0.4413,-0.4411,-0.441,-0.4409,0,0,-0.4984,-0.4901,-0.4903,-0.4879,-0.482,-0.4803,-0.4791,-0.4754,-0.4743,-0.4706,-0.4694,-0.4658,-0.4628,-0.4604,-0.4565,-0.4563,-0.4599,-0.4531,-0.4529,-0.4546,-0.4611,-0.4636,-0.4643,-0.4573,-0.4574,-0.4575,-0.4615,0,-0.503,-0.5005,-0.4954,-0.4945,-0.4927,-0.4866,-0.4856,-0.4818,-0.4782,-0.476,-0.472,-0.4696,-0.4658,-0.4643,-0.4638,-0.4596,-0.4612,-0.4592,-0.4562,-0.4562,-0.4577,-0.4649,-0.4675,-0.4716,-0.4619,-0.462,-0.4621,0,-0.5079,-0.5047,-0.5037,-0.4979,-0.4969,-0.496,-0.4922,-0.4902,-0.4858,-0.4832,-0.4804,-0.4761,-0.4745,-0.471,-0.4686,-0.4674,-0.4659,-0.4636,-0.4636,-0.4632,-0.4595,-0.4647,-0.4727,-0.4734,-0.4627,-0.4627,-0.4626,0,-0.5157,-0.511,-0.5098,-0.5079,-0.501,-0.5006,-0.4977,-0.4931,-0.4912,-0.4878,-0.4865,-0.483,-0.4811,-0.4784,-0.4732,-0.4712,-0.4715,-0.4675,-0.4692,-0.4694,-0.4696,-0.4697,-0.4776,-0.4686,-0.4685,-0.4685,-0.4685,0,-0.5213,-0.5209,-0.5132,-0.5124,-0.5118,-0.5059,-0.5054,-0.502,-0.4979,-0.4964,-0.4909,-0.4896,-0.4828,-0.4806,-0.4766,-0.4752,-0.4744,-0.4722,-0.4712,-0.4728,-0.4731,-0.4717,-0.4713,-0.4687,-0.4687,-0.4686,-0.4686,0,-0.5298,-0.5246,-0.5229,-0.5166,-0.515,-0.5148,-0.5093,-0.5084,-0.5044,-0.5025,-0.5017,-0.4955,-0.4927,-0.4873,-0.4829,-0.4802,-0.4798,-0.4779,-0.4813,-0.4807,-0.4827,-0.4826,-0.49,-0.4907,-0.4812,-0.4813,-0.4814,0,-0.5338,-0.5334,-0.527,-0.5256,-0.523,-0.5208,-0.5188,-0.5129,-0.511,-0.5059,-0.5056,-0.5023,-0.4994,-0.4952,-0.4903,-0.4869,-0.4849,-0.4877,-0.4844,-0.486,-0.485,-0.4852,-0.4851,-0.4886,-0.4887,-0.4888,-0.4889,0,-0.5415,-0.5389,-0.5363,-0.5327,-0.5305,-0.5275,-0.5241,-0.5232,-0.5165,-0.5147,-0.5118,-0.5095,-0.5051,-0.502,-0.4979,-0.4948,-0.4908,-0.49,-0.4902,-0.4919,-0.4939,-0.4929,-0.4834,-0.4898,-0.4897,-0.4897,-0.4896,-0.4896,-0.5479,-0.5472,-0.5426,-0.5399,-0.5367,-0.5337,-0.5325,-0.5284,-0.5258,-0.5218,-0.5184,-0.5158,-0.5113,-0.5054,-0.5026,-0.5004,-0.4985,-0.4988,-0.4989,-0.4991,-0.4998,-0.4942,-0.4996,-0.4996,-0.4996,-0.4995,-0.4995,0,-0.5553,-0.552,-0.5495,-0.545,-0.5428,-0.5392,-0.5352,-0.5336,-0.5314,-0.5276,-0.5248,-0.5215,-0.5184,-0.5132,-0.5097,-0.5089,-0.507,-0.5082,-0.5082,-0.5076,-0.5017,-0.5019,-0.5098,-0.5098,-0.5098,-0.5098,-0.5098,-0.5098,-0.5589,-0.5576,-0.5545,-0.5515,-0.5482,-0.5456,-0.5437,-0.5409,-0.5378,-0.5343,-0.5317,-0.5283,-0.5239,-0.52,-0.517,-0.5155,-0.5145,-0.5164,-0.5144,-0.509,-0.508,-0.5071,-0.5072,-0.5162,-0.5162,-0.5205,-0.5205,-0.5205]},{"header":{"parameterUnit":"m.s-1","parameterCategory":1,"la1":30.2991,"la2":30.254,"lo1":-89.0895,"lo2":-89.0444,"dy":0.0017,"dx":0.0017,"nx":28,"ny":28,"refTime":"2024-08-22T21:00:00:Z","depth":0,"parameterNumber":3,"parameterNumberName":"V-component_of_WINDS"},"data":[0,0,0,0,0,0,0,0,0,0,0,0,0,0,0,0,0,0,0,0,0,0,0,0,0,0,0,0,0,0,0,0,0,0,0,0,0,0,0,0,0,0,0,0,0,0,0,0,0,0,0,0,0,0,0,0,0,0,-0.693,-0.693,0,-0.6933,-0.6933,-0.6933,-0.6925,-0.6925,-0.6924,-0.6924,-0.6927,-0.6927,-0.6927,0,0,0,0,0,0,0,0,0,0,0,0,0,-0.6918,-0.6919,-0.693,-0.693,-0.693,-0.6933,-0.6933,-0.6933,-0.6925,-0.6925,-0.6924,-0.6924,-0.6926,-0.6927,-0.6927,0,0,0,0,0,0,0,0,0,0,0,0,0,-0.6923,-0.6919,-0.693,-0.6927,-0.6926,-0.6933,-0.6933,-0.6933,-0.6925,-0.6925,-0.6924,-0.6924,-0.6926,-0.6927,-0.6927,-0.6937,0,0,-0.6929,-0.6929,0,0,0,0,0,0,0,0,-0.6922,-0.6923,-0.6927,-0.6927,-0.6926,-0.6928,-0.693,-0.6934,-0.6925,-0.6925,-0.6924,-0.6924,-0.6927,-0.6928,-0.6929,-0.6937,-0.6938,-0.6929,-0.6929,-0.6929,-0.6929,0,0,0,0,0,0,0,-0.6922,-0.6923,-0.6931,-0.6927,-0.6927,-0.6925,-0.6925,-0.693,-0.6928,-0.6925,-0.6925,-0.6925,-0.6927,-0.6929,-0.6929,-0.6938,-0.6929,-0.6929,-0.6929,-0.6929,-0.6956,-0.6956,0,0,0,0,0,0,-0.6922,-0.6923,-0.6931,-0.6931,-0.6923,-0.6925,-0.6926,-0.6928,-0.6928,-0.6928,-0.6926,-0.6925,-0.6928,-0.6928,-0.6929,-0.6942,-0.6929,-0.6929,-0.693,-0.6956,-0.6956,-0.6957,0,0,0,0,0,0,-0.6922,-0.6923,-0.6931,-0.6927,-0.6928,-0.6926,-0.6929,-0.6928,-0.693,-0.6928,-0.6928,-0.6927,-0.6928,-0.6928,-0.6936,-0.6942,-0.693,-0.693,-0.6955,-0.6956,-0.6956,-0.6968,0,0,0,0,0,0,-0.6922,-0.6923,-0.6927,-0.6927,-0.6928,-0.6938,-0.6929,-0.6929,-0.6931,-0.693,-0.693,-0.693,-0.6928,-0.6935,-0.6936,-0.6943,-0.693,-0.6955,-0.6955,-0.6956,-0.6967,-0.6969,-0.697,0,0,0,0,0,-0.6921,-0.6929,-0.6927,-0.6928,-0.6933,-0.6938,-0.6938,-0.6936,-0.6931,-0.6935,-0.6934,-0.693,-0.6941,-0.6936,-0.6937,-0.6944,-0.6954,-0.6955,-0.6956,-0.6966,-0.6968,-0.697,0,0,0,0,0,0,-0.6929,-0.6929,-0.6927,-0.6935,-0.6937,-0.6937,-0.6941,-0.6938,-0.6941,-0.694,-0.6936,-0.6936,-0.6945,-0.6945,-0.6939,-0.6954,-0.6947,-0.6948,-0.6954,-0.6956,-0.6958,-0.6958,-0.6931,0,0,0,0,0,-0.6932,-0.6937,-0.6936,-0.6944,-0.6945,-0.6943,-0.6945,-0.6943,-0.6944,-0.6945,-0.6945,-0.6946,-0.695,-0.6953,-0.6957,-0.6967,-0.6967,-0.6972,-0.6973,-0.6975,-0.6976,-0.6983,-0.6986,-0.696,-0.696,-0.696,0,0,-0.6938,-0.6939,-0.6941,-0.6945,-0.6946,-0.6951,-0.6943,-0.6949,-0.6953,-0.6946,-0.6953,-0.6953,-0.6955,-0.6964,-0.6968,-0.6964,-0.6984,-0.6976,-0.6977,-0.6978,-0.6985,-0.6987,-0.6989,-0.6961,-0.696,-0.696,0,0,-0.6951,-0.6952,-0.6959,-0.696,-0.6962,-0.6961,-0.6963,-0.6963,-0.6963,-0.6971,-0.6966,-0.697,-0.6977,-0.6979,-0.6981,-0.6996,-0.6992,-0.6997,-0.7007,-0.7013,-0.7016,-0.7017,-0.7024,-0.7027,-0.6998,-0.6998,-0.6998,0,-0.6958,-0.6966,-0.6963,-0.6969,-0.6971,-0.6965,-0.6973,-0.6974,-0.6977,-0.6979,-0.6975,-0.6984,-0.6984,-0.6995,-0.6999,-0.7,-0.7002,-0.6997,-0.7015,-0.7017,-0.7019,-0.7026,-0.7028,-0.6999,-0.6999,-0.6999,-0.6999,0,-0.6975,-0.698,-0.6986,-0.6989,-0.6992,-0.6999,-0.6997,-0.7,-0.6998,-0.6998,-0.7006,-0.7006,-0.7011,-0.7013,-0.701,-0.7023,-0.7021,-0.7016,-0.7009,-0.7022,-0.7028,-0.7031,-0.7,-0.7,-0.6999,-0.6999,0,0,-0.6994,-0.6996,-0.6998,-0.7001,-0.7003,-0.7007,-0.7014,-0.7018,-0.7022,-0.7024,-0.703,-0.7036,-0.7032,-0.7034,-0.7032,-0.7038,-0.7052,-0.7032,-0.7032,-0.7037,-0.7068,-0.7073,-0.7076,-0.7049,-0.705,-0.705,-0.7068,0,-0.7008,-0.702,-0.7018,-0.703,-0.7036,-0.7031,-0.7037,-0.7039,-0.7039,-0.7044,-0.7043,-0.7049,-0.7042,-0.7044,-0.7049,-0.7049,-0.7058,-0.7047,-0.7056,-0.7056,-0.7057,-0.7079,-0.7083,-0.7101,-0.7071,-0.7071,-0.7071,0,-0.7026,-0.703,-0.7043,-0.7046,-0.7048,-0.7053,-0.7058,-0.7063,-0.7065,-0.7065,-0.7068,-0.7065,-0.7072,-0.7064,-0.7075,-0.7068,-0.7071,-0.7072,-0.7073,-0.7074,-0.7066,-0.7082,-0.7106,-0.7109,-0.7075,-0.7074,-0.7074,0,-0.704,-0.7049,-0.7058,-0.706,-0.7062,-0.7067,-0.7068,-0.707,-0.7074,-0.7078,-0.708,-0.7085,-0.7088,-0.7092,-0.709,-0.7084,-0.7102,-0.7093,-0.7103,-0.7103,-0.7108,-0.7108,-0.7134,-0.7108,-0.7108,-0.7107,-0.7107,0,-0.7057,-0.7066,-0.7064,-0.707,-0.708,-0.7077,-0.7087,-0.7088,-0.709,-0.7096,-0.7092,-0.7098,-0.7095,-0.7101,-0.71,-0.711,-0.7111,-0.7111,-0.7111,-0.7113,-0.7113,-0.7116,-0.7115,-0.7108,-0.7108,-0.7108,-0.7108,0,-0.7075,-0.7074,-0.7084,-0.7087,-0.7087,-0.7095,-0.7097,-0.7102,-0.7102,-0.711,-0.7112,-0.7112,-0.7119,-0.7117,-0.7125,-0.7124,-0.7137,-0.7135,-0.7137,-0.7137,-0.7147,-0.7147,-0.7177,-0.7182,-0.7151,-0.7151,-0.7151,0,-0.7086,-0.7093,-0.7096,-0.7101,-0.7103,-0.7109,-0.7113,-0.7111,-0.7115,-0.7119,-0.7125,-0.7131,-0.7137,-0.7148,-0.7149,-0.7155,-0.7153,-0.7164,-0.7154,-0.7156,-0.7156,-0.7156,-0.7157,-0.7166,-0.7166,-0.7167,-0.7167,0,-0.7107,-0.7107,-0.7113,-0.7119,-0.7124,-0.7128,-0.7132,-0.7136,-0.7134,-0.714,-0.7147,-0.7151,-0.7159,-0.7167,-0.7172,-0.7174,-0.7171,-0.717,-0.7172,-0.7175,-0.7176,-0.7177,-0.7144,-0.7169,-0.7169,-0.7169,-0.7169,-0.7168,-0.7123,-0.713,-0.7134,-0.7141,-0.7144,-0.7148,-0.7154,-0.7155,-0.7161,-0.7168,-0.7166,-0.7175,-0.7179,-0.7187,-0.7189,-0.7196,-0.7193,-0.7196,-0.7198,-0.7199,-0.7201,-0.7174,-0.7197,-0.7197,-0.7197,-0.7197,-0.7197,0,-0.7145,-0.7148,-0.7154,-0.7161,-0.7167,-0.7163,-0.7168,-0.7173,-0.7181,-0.7185,-0.7191,-0.72,-0.7207,-0.7209,-0.7216,-0.7222,-0.722,-0.7224,-0.7224,-0.7225,-0.7203,-0.7201,-0.7225,-0.7225,-0.7225,-0.7225,-0.7225,-0.7225,-0.7158,-0.7169,-0.7169,-0.7182,-0.7185,-0.7194,-0.7197,-0.7201,-0.7205,-0.7216,-0.7222,-0.7223,-0.7226,-0.7234,-0.7241,-0.7241,-0.7245,-0.7249,-0.7249,-0.7229,-0.7226,-0.7223,-0.7221,-0.7249,-0.7249,-0.727,-0.7271,-0.7271]}]]